SCP
0 0 0 0 0 0 0 0 0 0 0 0 0 0 0 0 0 0 0 0 0 0 0 0 0 0 0 0 0 0 0 0 0 0 0 0 0 0 0 0 0 0 0 0
0 0 0 0 0 0 0 0 0 0 0 0 0 0 0 0 0 0 0 0 0 0 0 0 0 0 0 0 0 0 0 0 0 0 0 0 0 0 0 0 0 0 0 0
0 0 0 0 0 0 0 0 0 0 0 0 0 0 0 0 0 0 0 0 0 0 0 0 0 0 0 0 0 0 0 0 0 0 0 0 0 0 0 0 0 0 0 0
0 0 0 0 0 0 0 0 0 0 0 0 0 0 0 0 0 0 0 0 0 0 0 0 0 0 0 0 0 0 0 0 0 0 0 0 0 0 0 0 0 0 0 0
0 0 0 0 0 0 0 0 0 0 0 0 0 0 0 0 0 0 0 0 0 0 0 0 0 0 0 0 0 0 0 0 0 0 0 0 0 0 0 0 0 0 0 0
0 0 0 0 0 0 0 0 0 0 0 0 0 0 0 0 0 0 0 0 0 0 0 0 0 0 0 0 0 0 0 0 0 0 0 0 0 0 0 0 0 0 0 0
0 0 0 0 0 0 0 0 0 0 0 0 0 0 0 0 0 0 0 0 0 0 0 0 0 0 0 0 0 0 0 0 0 0 0 0 0 0 0 0 0 0 0 0
0 0 0 0 0 0 0 0 0 0 0 0 0 0 0 0 0 0 0 0 0 0 0 0 0 0 0 0 0 0 0 0 0 0 0 0 0 0 0 0 0 0 0 0
0 0 0 0 0 0 0 0 0 0 0 0 0 0 0 0 0 0 0 0 0 0 0 0 0 0 0 0 0 0 0 0 0 0 0 0 0 0 0 0 0 0 0 0
0 0 0 0 0 0 0 0 0 0 0 0 0 0 0 0 0 0 0 0 0 0 0 0 0 0 0 0 0 0 0 0 0 0 0 0 0 0 0 0 0 0 0 0
0 0 0 0 0 0 0 0 0 0 0 0 0 0 0 0 0 0 0 0 0 0 0 0 0 0 0 0 0 0 0 0 0 0 0 0 0 0 0 0 0 0 0 0
0 0 0 0 0 0 0 0 0 0 0 0 0 0 0 0 0 0 0 0 0 0 0 0 0 0 0 0 0 0 0 0 0 0 0 0 0 0 0 0 0 0 0 0
0 0 0 0 0 0 0 0 0 0 0 0 0 0 0 0 0 0 0 0 0 0 0 0 0 0 0 0 0 0 0 0 0 0 0 0 0 0 0 0 0 0 0 0
0 0 0 0 0 0 0 0 0 0 0 0 0 0 0 0 0 0 0 0 0 0 0 0 0 0 0 0 0 0 0 0 0 0 0 0 0 0 0 0 0 0 0 0
0 0 0 0 0 0 0 0 0 0 0 0 0 0 0 0 0 0 0 0 0 0 0 0 0 0 0 0 0 0 0 0 0 0 0 0 0 0 0 0 0 0 0 0
0 0 0 0 0 0 0 0 0 0 0 0 0 0 0 0 0 0 0 0 0 0 0 0 0 0 0 0 0 0 0 0 0 0 0 0 0 0 0 0 0 0 0 0
0 0 0 0 0 0 0 0 0 0 0 0 0 0 0 0 0 0 0 0 0 0 0 0 0 0 0 0 0 0 0 0 0 0 0 0 0 0 0 0 0 0 0 0
0 0 0 0 0 0 0 0 0 0 0 0 0 0 0 0 0 0 0 0 0 0 0 0 0 0 0 0 0 0 0 0 0 0 0 0 0 0 0 0 0 0 0 0
0 0 0 0 0 0 0 0 0 0 0 0 0 0 0 0 0 0 0 0 0 0 0 0 0 0 0 0 0 0 0 0 0 0 0 0 0 0 0 0 0 0 0 0
0 0 0 0 0 0 0 0 0 0 0 0 0 0 0 0 0 0 0 0 0 0 0 0 0 0 0 0 0 0 0 0 0 0 0 0 0 0 0 0 0 0 0 0
0 0 0 0 0 0 0 0 0 0 0 0 0 0 0 0 0 0 0 0 0 0 0 0 0 0 0 0 0 0 0 0 0 0 0 0 0 0 0 0 0 0 0 0
0 0 0 0 0 0 0 0 0 0 0 0 0 0 0 0 0 0 0 0 0 0 0 0 0 0 0 0 0 0 0 0 0 0 0 0 0 0 0 0 0 0 0 0
0 0 0 0 0 0 0 0 0 0 0 0 0 0 0 0 0 0 0 0 0 0 0 0 0 0 0 0 0 0 0 0 0 0 0 0 0 0 0 0 0 0 0 0
0 0 0 0 0 0 0 0 0 0 0 0 0 0 0 0 0 0 0 -0 -0 0 0 0 0 0 0 0 -0 -0 0 0 0 0 0 0 0 0 0 0 0 0 0 0
0 0 0 0 0 0 0 0 0 0 0 0 0 0 0 0 0 0 0 0 0 0 0 0 0 0 0 0 0 0 0 0 0 0 0 0 0 0 0 0 0 0 0 0
0 0 0 0 0 0 0 0 0 0 0 0 -0 -0 0 0 0 0 0 0 0 0 0 0 0 0 0 0 0 0 0 0 0 0 0 0 0 0 0 0 0 0 0 0
0 0 0 0 0 0 0 0 0 0 0 0 -0 -0 0 0 0 0 0 0 0 0 0 0 0 0 0 0 0 0 0 0 0 0 0 0 0 0 0 0 0 0 0 0
Wind_Speed
4 4 4 4 5 7 7 8 8 8 8 9 6 6 6 6 6 8 9 11 12 12 11 10 10 10 10 10 10 11 11 11 10 9 8 8 8 8 7 8 8 8 7 6
2 3 3 3 5 7 8 6 7 6 9 7 4 2 3 5 7 9 10 12 13 13 12 12 13 12 11 11 11 11 11 11 9 9 9 9 9 8 8 8 7 7 8 8
3 1 1 4 6 7 5 5 6 8 9 3 2 3 4 6 8 10 11 11 13 14 14 14 13 13 13 12 11 11 11 10 10 10 10 10 10 9 9 8 7 7 8 8
2 1 5 7 2 2 3 4 4 4 4 3 4 3 2 3 6 7 8 10 11 12 12 11 11 11 11 11 11 12 11 11 11 11 11 10 9 10 9 7 7 7 8 8
3 3 5 4 1 1 2 4 2 3 4 4 3 2 2 1 3 6 7 8 9 10 10 10 11 12 11 12 12 12 12 12 12 12 11 11 11 10 8 7 7 7 6 8
3 3 5 4 1 1 2 3 1 1 4 3 1 0 3 3 1 2 2 4 6 7 8 9 10 11 12 13 13 14 14 13 12 12 12 12 12 10 7 7 8 8 7 8
3 3 6 3 2 0 3 4 2 2 2 1 1 3 4 5 3 1 1 2 4 6 7 8 9 11 12 12 14 13 11 10 10 11 11 11 9 8 7 7 7 7 8 7
3 3 6 2 1 2 3 2 2 3 2 1 1 2 3 3 3 1 1 2 4 5 5 5 8 10 11 12 11 8 9 10 10 10 10 9 8 8 8 8 8 7 7 6
5 5 3 2 2 3 1 2 3 3 4 2 1 2 3 3 3 2 2 2 3 5 5 4 6 8 10 9 7 8 8 9 9 9 8 7 9 9 7 7 7 7 6 7
2 4 3 3 2 2 1 2 3 3 3 2 0 1 3 3 4 4 4 3 4 5 5 4 4 5 5 5 6 8 9 8 7 8 7 6 6 7 7 7 7 7 7 7
3 3 3 3 2 2 3 3 3 3 2 2 2 3 4 5 5 4 5 5 5 5 5 4 3 3 3 4 7 7 7 6 6 6 7 6 6 6 7 7 8 8 7 6
4 3 1 2 2 2 3 4 3 3 4 4 5 5 6 6 5 5 6 6 6 6 6 5 4 4 3 3 6 7 6 5 5 4 5 5 5 3 3 4 6 7 6 6
3 1 1 1 2 2 3 3 4 4 5 6 6 7 7 6 6 7 7 8 7 6 6 6 6 6 4 3 5 6 5 4 4 4 4 4 4 5 4 2 3 4 5 6
1 2 1 1 1 2 4 5 6 7 7 7 6 7 7 8 9 10 8 6 6 8 7 7 7 7 5 4 5 5 4 5 4 3 3 3 3 4 4 4 3 2 2 4
3 1 1 1 3 4 5 6 8 8 7 7 7 8 9 10 10 9 7 6 9 10 9 9 8 7 5 5 6 5 5 4 3 3 3 3 3 3 3 3 3 2 2 2
2 3 4 4 5 5 6 7 8 7 6 7 8 9 9 9 9 9 9 9 11 11 9 8 8 6 5 6 6 5 4 6 6 4 3 3 3 3 2 3 2 2 2 2
3 3 3 4 4 5 6 6 7 6 6 7 7 7 8 9 10 10 9 8 9 8 8 8 6 6 6 6 5 4 4 5 6 5 3 3 3 3 3 3 2 2 1 1
3 3 4 4 5 6 6 7 7 7 6 6 6 8 9 9 8 7 6 6 8 9 9 7 7 7 7 6 5 4 4 4 4 4 4 3 4 3 3 3 2 2 1 2
6 6 6 6 6 6 6 6 6 6 6 6 7 8 7 7 6 6 6 8 9 8 7 7 8 8 7 6 6 4 5 5 4 4 4 4 4 4 3 3 2 2 2 2
7 8 8 8 7 8 7 6 7 7 6 6 8 8 8 7 6 6 8 8 6 3 3 5 6 6 6 6 7 5 5 5 5 4 4 4 4 3 3 3 3 3 2 2
8 8 8 8 8 8 7 6 7 7 6 6 8 8 7 6 6 6 7 6 5 5 5 7 6 5 5 5 7 5 6 5 5 4 4 4 3 3 3 3 3 2 2 2
8 8 9 9 9 8 7 6 7 7 7 7 7 7 7 6 6 6 6 4 3 5 5 5 5 6 7 7 5 6 6 5 5 4 4 4 3 3 3 3 2 2 1 1
8 9 9 8 8 8 8 8 7 7 7 6 6 6 6 4 3 4 4 3 3 6 5 5 6 9 9 6 5 5 5 5 4 4 3 3 3 3 2 2 2 1 1 1
8 8 8 7 8 9 9 7 7 6 7 6 6 5 4 4 4 3 2 3 5 6 5 5 8 9 8 5 4 4 4 4 4 3 3 3 3 2 2 2 2 2 2 3
7 8 8 9 8 6 5 6 7 7 7 6 7 6 5 3 3 2 3 4 5 6 4 6 8 7 5 4 4 4 4 4 4 3 3 3 2 2 2 2 2 2 2 2
7 7 6 6 5 4 4 5 5 4 5 5 5 5 4 4 4 4 4 5 6 5 4 3 4 5 4 4 4 4 4 4 4 3 3 3 3 2 2 2 3 2 2 2
8 7 6 6 6 5 5 5 5 5 4 4 4 4 4 4 5 5 5 5 5 4 4 4 4 4 4 4 4 4 3 3 3 3 3 2 2 2 2 3 2 2 2 2
Wind_Direction
227 224 186 201 205 189 193 192 196 228 237 257 251 228 220 206 188 184 182 182 184 183 181 178 176 176 176 174 170 169 169 176 181 177 172 168 170 174 173 175 181 179 178 184
265 240 213 238 233 216 220 215 222 244 261 258 258 224 204 198 190 193 195 191 189 188 184 183 183 181 179 178 175 171 178 184 178 172 174 178 179 177 177 181 180 177 185 189
236 273 90 254 233 214 210 209 197 222 244 274 271 235 216 205 197 198 197 192 190 191 192 189 186 182 183 182 174 177 184 183 178 178 183 185 183 179 184 186 182 186 193 194
178 128 222 239 256 212 214 245 227 236 262 262 244 253 238 209 200 207 200 194 193 193 194 191 184 181 179 172 174 181 185 185 182 183 186 183 181 187 190 185 187 193 198 200
145 198 270 288 289 186 200 265 251 245 270 288 299 339 328 259 207 211 204 198 195 192 190 184 183 178 171 175 179 184 190 191 188 187 186 184 190 194 191 185 193 197 197 200
145 180 232 244 281 291 141 272 287 270 280 306 13 9 290 321 301 265 221 192 187 178 172 177 182 171 173 181 184 193 196 196 190 186 187 191 196 194 187 188 198 198 206 207
177 216 259 260 292 326 189 246 302 297 283 281 203 221 286 312 302 275 219 189 167 161 170 182 173 167 178 185 197 200 192 187 185 188 192 194 191 187 182 188 192 199 209 213
167 201 251 308 18 206 230 290 308 311 306 290 264 298 322 322 325 5 59 128 151 161 172 164 159 166 178 193 198 184 177 180 185 187 191 192 186 187 184 185 192 202 210 221
194 221 258 295 258 267 250 285 299 302 308 310 317 338 351 1 7 32 56 103 134 149 144 137 156 168 185 195 173 164 173 184 187 185 187 184 185 188 184 188 197 205 208 221
269 276 293 304 299 324 312 267 295 308 315 333 19 19 19 18 29 38 47 79 104 114 121 126 148 168 185 171 162 164 175 180 175 174 177 177 182 187 190 193 198 202 207 216
256 279 333 351 349 352 355 357 4 1 16 39 64 53 50 45 41 47 54 63 86 103 108 107 112 123 125 146 153 161 168 168 165 167 172 177 184 189 193 201 198 197 205 203
235 244 224 287 339 15 30 14 8 35 47 47 63 64 59 56 52 60 63 67 76 79 80 80 84 81 75 114 141 148 153 155 158 160 163 171 176 175 179 180 183 191 194 187
238 252 188 252 6 41 56 39 44 62 66 62 56 62 63 63 61 67 67 67 73 77 76 74 71 61 52 79 118 132 141 142 145 153 159 169 171 174 173 161 149 176 192 194
185 93 56 11 4 49 80 74 69 65 58 58 63 64 65 66 64 63 60 60 71 73 67 66 65 51 37 69 99 110 114 117 126 141 147 150 162 171 167 166 168 172 189 190
16 70 142 107 71 73 80 82 78 68 62 56 57 62 65 67 64 61 54 60 71 68 61 60 58 42 34 66 84 91 96 99 108 108 113 119 125 136 146 162 163 148 125 119
33 69 90 96 88 80 78 81 84 76 71 68 63 60 63 70 69 63 57 58 68 64 56 57 51 34 43 63 71 75 83 91 99 101 101 104 108 115 125 134 136 135 143 146
105 99 97 92 88 87 86 90 91 89 80 73 67 66 71 73 67 60 53 54 65 65 57 53 42 33 47 59 67 70 72 79 83 87 86 92 96 96 100 105 108 113 119 124
92 106 109 116 113 102 93 93 95 91 88 86 79 74 73 73 71 62 52 55 62 54 42 39 41 41 43 52 64 70 76 78 81 86 85 83 87 90 93 95 98 97 70 64
79 91 92 94 100 102 97 94 93 91 89 88 84 79 74 69 68 66 62 60 56 47 20 20 41 51 46 43 58 70 74 75 75 75 80 85 84 80 83 86 81 73 66 65
73 85 89 87 87 92 93 92 90 86 81 88 90 85 76 67 66 69 67 60 44 26 10 33 49 50 45 45 55 66 70 72 75 74 72 73 76 77 77 80 80 75 69 65
73 78 83 86 84 84 87 93 95 89 82 83 88 88 82 70 63 65 68 58 20 22 43 50 52 48 46 51 58 64 67 69 69 70 72 73 73 72 70 67 65 64 61 56
70 76 77 80 81 77 72 78 85 86 82 79 81 84 82 71 63 60 55 53 30 40 53 49 47 51 55 58 60 62 65 69 69 69 69 69 69 70 69 69 62 53 48 44
72 74 73 72 77 79 73 70 73 78 78 78 80 81 81 75 67 73 56 20 38 56 61 54 54 58 62 61 60 63 64 64 62 62 64 65 66 67 64 57 45 34 16 0
74 75 73 73 78 77 71 63 66 69 71 68 66 70 80 78 55 42 64 54 60 64 62 57 59 60 63 61 62 62 60 57 55 57 61 64 63 58 50 41 30 15 5 356
80 78 76 75 73 70 70 70 66 61 63 60 53 50 52 63 74 52 51 55 60 65 61 55 57 58 60 60 60 58 56 55 58 60 58 55 49 45 41 31 14 1 357 353
74 74 69 66 68 66 63 67 67 58 61 60 47 41 44 49 56 55 54 53 54 58 57 49 47 48 49 51 53 52 53 56 58 55 52 49 41 34 23 13 3 1 359 352
66 67 66 59 50 51 58 64 66 57 55 65 57 39 45 50 51 51 52 51 50 48 47 45 46 47 47 49 50 48 47 48 48 43 37 32 27 15 3 1 358 353 351 347